Location: Doux
(49.5045°N, 4.4321°E)
Time: 19:59:07
(UTC+00:00)

Cosmos 1408 - Pass Details

Date: 23 May 2024
Orbit: 363 x 378 km, 82.6° (Epoch: 14 June)

Event Time Altitude Azimuth Distance (km) Brightness Sun altitude
Exits shadow 02:56:23 - 241° (WSW) 1,400 4.3 -7.3°
Reaches altitude 10° 02:56:31 10° 243° (WSW) 1,358 4.2 -7.3°
Maximum altitude 02:58:38 18° 289° (WNW) 995 3.9 -7.1°
Drops below altitude 10° 03:00:45 10° 335° (NNW) 1,366 5.1 -6.8°
Sets 03:03:09 0° 356° (N) 2,221 6.5 -6.5°
